This is the latest recevied weather packets stored in our database for station/object KC1HBM. If no packets are shown the sender has not sent any weather packets the latest 1 day(s).
| Time | Temp. | Humidity | Pressure | Rain* | Wind** | Luminosity | Snow |
|---|---|---|---|---|---|---|---|
| 1777979879 | 11.67° C | 83% | 1006.5 hPa | 0 mm | 1.34 m/s, 55° | 84 W/m² | - |
| 1777979574 | 11.67° C | 84% | 1006.6 hPa | 0 mm | 0 m/s | 75 W/m² | - |
| 1777979270 | 11.67° C | 84% | 1006.5 hPa | 0 mm | 0 m/s | 71 W/m² | - |
| 1777978969 | 11.67° C | 84% | 1006.3 hPa | 0 mm | 0.89 m/s, 328° | 42 W/m² | - |
| 1777978665 | 11.67° C | 84% | 1006.5 hPa | 0 mm | 1.34 m/s, 16° | 70 W/m² | - |
| 1777978360 | 11.11° C | 85% | 1006.5 hPa | 0 mm | 0.45 m/s, 331° | 74 W/m² | - |
| 1777978057 | 11.11° C | 86% | 1006.5 hPa | 0 mm | 0.45 m/s, 13° | 64 W/m² | - |
| 1777977755 | 10.56° C | 87% | 1006.6 hPa | 0 mm | 1.34 m/s, 323° | 53 W/m² | - |
| 1777977451 | 10.56° C | 87% | 1006.4 hPa | 0 mm | 0.89 m/s, 305° | 47 W/m² | - |
| 1777977149 | 10° C | 89% | 1006.4 hPa | 0 mm | 1.34 m/s, 13° | 39 W/m² | - |
| 1777976846 | 10° C | 89% | 1006.4 hPa | 0 mm | 1.34 m/s, 309° | 20 W/m² | - |
| 1777976544 | 10° C | 88% | 1006.4 hPa | 0 mm | 1.34 m/s, 21° | 12 W/m² | - |
| 1777976242 | 10° C | 88% | 1006.4 hPa | 0 mm | 1.79 m/s, 339° | 12 W/m² | - |
| 1777975938 | 10° C | 88% | 1006.5 hPa | 0 mm | 1.34 m/s, 313° | 12 W/m² | - |
| 1777975635 | 10° C | 88% | 1006.4 hPa | 0 mm | 0.89 m/s, 349° | 9 W/m² | - |
| 1777975332 | 10° C | 88% | 1006.5 hPa | 0 mm | 0.45 m/s, 297° | 9 W/m² | - |
| 1777975027 | 10° C | 88% | 1006.3 hPa | 0 mm | 0.89 m/s, 323° | 7 W/m² | - |
| 1777974725 | 10° C | 88% | 1006.4 hPa | 0 mm | 1.34 m/s, 301° | 7 W/m² | - |
| 1777974421 | 10° C | 88% | 1006.3 hPa | 0 mm | 1.34 m/s, 17° | 5 W/m² | - |
| 1777974117 | 10° C | 87% | 1006.2 hPa | 0 mm | 0.45 m/s, 317° | 4 W/m² | - |
| 1777973814 | 10° C | 86% | 1006.5 hPa | 0 mm | 0.45 m/s, 317° | 2 W/m² | - |
| 1777973511 | 10° C | 85% | 1006.3 hPa | 0 mm | 0.89 m/s, 311° | 0 W/m² | - |
| 1777973208 | 10.56° C | 84% | 1006.3 hPa | 0 mm | 0 m/s | 0 W/m² | - |
| 1777972907 | 10.56° C | 84% | 1006.3 hPa | 0 mm | 0.45 m/s, 309° | 0 W/m² | - |
| 1777972603 | 10.56° C | 84% | 1006.4 hPa | 0 mm | 0.45 m/s, 332° | 0 W/m² | - |
* Rain latest hour (hover to see other rain measurements)
** Current wind speed in m/s (hover to see current wind gust speed)